Location: Albuquerque Trailhead
(34.7934°N, 106.3736°W)
Time: 03:37:13
(UTC+00:00)

Cosmos 1975 Rocket - Pass Details

Date: 20 June 2021
Orbit: 604 x 633 km, 82.5° (Epoch: 29 July)

Event Time Altitude Azimuth Distance (km) Brightness Sun altitude
Exits shadow 02:58:51 - 138° (SE) 2,094 5.1 -7.2°
Reaches altitude 10° 02:59:18 10° 134° (SE) 1,959 5.0 -7.3°
Maximum altitude 03:02:26 20° 88° (E) 1,440 4.5 -7.8°
Drops below altitude 10° 03:05:35 10° 42° (NE) 1,982 5.6 -8.4°
Sets 03:08:18 0° 25° (NNE) 2,898 6.7 -8.8°
